Regional Weather Roundup
Issued by NWS

Home | Current Version | Previous Version | Graphics & Text | Print | Product List | Glossary Off
Versions: 1 2 3 4 5 6 7 8 9 10 11 12 13 14 15 16 17 18 19 20 21 22 23 24 25 26 27 28 29 30 31 32 33 34 35 36 37 38 39 40 41 42 43 44 45 46 47 48 49 50

000
ASUS43 KIND 180909
RWRIN

WEATHER ROUNDUP FOR INDIANA
NATIONAL WEATHER SERVICE INDIANAPOLIS IN
400 AM EST SAT NOV 18 2017

NOTE: "FAIR" INDICATES FEW OR NO CLOUDS BELOW 12,000 FEET WITH NO
SIGNIFICANT WEATHER AND/OR OBSTRUCTIONS TO VISIBILITY.

* - STATION DOES NOT REPORT WEATHER SUCH AS PRECIPITATION OR FOG.

+ - STATION NOT QUALITY CONTROLLED BY THE NATIONAL WEATHER SERVICE.
    USE DATA WITH CAUTION...ESPECIALLY DEWPOINT AND RELATIVE
    HUMIDITY OBSERVATIONS.

INZ001>003-010>013-019-020-181000-
NORTHWEST INDIANA

CITY           SKY/WX    TMP DP  RH WIND       PRES   REMARKS
GARY /AIRPORT/ CLOUDY    48  47  97 CALM      29.54S FOG
KNOX *+        CLOUDY    45  43  93 SE6       29.53F
LA PORTE +     DRIZZLE   43  43  99 CALM      29.54F
MICHIGAN CITY+ DRIZZLE   43  43 100 CALM      29.54F
MONTICELLO +   LGT RAIN  51  48  92 S6        29.51F
RENSSELAER +   CLOUDY    52  43  71 W3        29.53S
VALPARAISO     CLOUDY    47  46  97 NE5       29.53S FOG

$$

LMZ046-743>745-181000-
SOUTHERN LAKE MICHIGAN

STATION/POSITION TIME  TEMP    WIND        PRES    WAVE
                       AIR SEA DIR/SP/G            HT
                 (UTC) (F)     (DEG/KT/KT) (MB)    (FT)
BURNS HARBOR     0840   47        CALM     1001.0F
MICHIGAN CITY    0840   44     110/  4/  5   N/A

$$

INZ004-005-014>016-021>024-181000-
NORTH CENTRAL INDIANA

CITY           SKY/WX    TMP DP  RH WIND       PRES   REMARKS
GOSHEN         CLOUDY    46  42  86 CALM      29.53F
LOGANSPORT +   RAIN      46  45  93 SE5       29.54F
ROCHESTER +    DRIZZLE   48  46  93 S3        29.54F
SOUTH BEND     CLOUDY    43  43 100 CALM      29.55F FOG
WARSAW +       CLOUDY    46  45  93 CALM      29.54F

$$

INZ006>009-017-018-025>027-181000-
NORTHEAST INDIANA

CITY           SKY/WX    TMP DP  RH WIND       PRES   REMARKS
AUBURN +       DRIZZLE   45  43  93 CALM      29.56F
FORT WAYNE     LGT RAIN  50  46  86 SW8       29.56F
HUNTINGTON +   CLOUDY    48  45  90 S5        29.55F
KENDALLVILLE + CLOUDY    46  45  99 SW6       29.54F

$$

INZ028-029-035-036-043>045-051>053-181000-
WEST CENTRAL INDIANA

CITY           SKY/WX    TMP DP  RH WIND       PRES   REMARKS
CRAWFORDSVL +  RAIN      52  51  97 S12G20    29.52F
GREENCASTLE +  CLOUDY    57  46  67 S12G28    29.55F
LAFAYETTE      LGT RAIN  54  50  86 S7G17     29.51F
TERRE HAUTE    CLOUDY    58  49  72 S16G29    29.54F

$$

INZ030>032-037>040-046>048-054>057-064-065-181000-
CENTRAL INDIANA

CITY           SKY/WX    TMP DP  RH WIND       PRES   REMARKS
CP ATTERBURY + CLOUDY    57  45  62 S9G16     29.60F
FISHERS *+     CLOUDY    48  48 100 S12       29.55
FRANKFORT +    CLOUDY    56  51  81 SW10G17   29.53F
GREENWOOD *+   CLOUDY    55  49  79 S7        29.58F
INDIANAPOLIS   LGT RAIN  56  49  77 S10       29.57F
-EAGLE CREEK   LGT RAIN  54  48  80 SE5       29.55F
KOKOMO +       LGT RAIN  49  46  90 S9        29.54F
MARION +       CLOUDY    48  44  86 S15       29.56F FOG
MT COMFORT *+  CLOUDY    50  48  93 S6        29.58F
SHELBYVILLE    CLOUDY    53  43  68 S15       29.58F
ZIONSVILLE +   LGT RAIN  52  49  90 S9        29.55F

$$

INZ033-034-041-042-049-050-058-059-181000-
EAST CENTRAL INDIANA

CITY           SKY/WX    TMP DP  RH WIND       PRES   REMARKS
MUNCIE         LGT RAIN  53  44  71 S13G21    29.56F
RICHMOND +     CLOUDY    46  43  87 S14       29.63F

$$

INZ060-061-067>069-081>083-085>088-181000-
SOUTHWEST INDIANA

CITY           SKY/WX    TMP DP  RH WIND       PRES   REMARKS
EVANSVILLE     CLOUDY    63  54  72 S16G24    29.63F
HUNTINGBURG +  CLOUDY    61  51  70 S18G26    29.64F
WASHINGTON +   CLOUDY    60  47  63 S18G24    29.60F

$$

INZ062-063-066-070>080-084-089>092-181000-
SOUTH CENTRAL AND SOUTHEAST INDIANA

CITY           SKY/WX    TMP DP  RH WIND       PRES   REMARKS
BEDFORD +      CLOUDY    61  48  63 S16G32    29.62F
BLOOMINGTON    CLOUDY    62  48  60 SW18G35   29.59F
MADISON *+     CLOUDY    55  39  54 S14       29.68F
NORTH VERNON + CLOUDY    54  43  66 S17G24    29.65F
SEYMOUR +      CLOUDY    59  45  58 S13       29.64F

$$




USA.gov is the U.S. government's official web portal to all federal, state and local government web resources and services.